This is the latest recevied weather packets stored in our database for station/object KD9NSC. If no packets are shown the sender has not sent any weather packets the latest 10 day(s).
| Time | Temp. | Humidity | Pressure | Rain* | Wind** | Luminosity | Snow |
|---|---|---|---|---|---|---|---|
| 1777099530 | 8.33° C | 89% | 1013.2 hPa | 0 mm | - | 0 W/m² | - |
| 1777099228 | 8.33° C | 89% | 1013.3 hPa | 0 mm | - | 0 W/m² | - |
| 1777098925 | 8.33° C | 89% | 1013.3 hPa | 0 mm | - | 0 W/m² | - |
| 1777098621 | 7.78° C | 90% | 1013.2 hPa | 0 mm | - | 0 W/m² | - |
| 1777098318 | 7.78° C | 90% | 1012.9 hPa | 0 mm | - | 0 W/m² | - |
| 1777098016 | 8.33° C | 91% | 1013.2 hPa | 0 mm | - | 0 W/m² | - |
| 1777097712 | 8.33° C | 91% | 1013.2 hPa | 0 mm | - | 0 W/m² | - |
| 1777097409 | 8.33° C | 92% | 1012.9 hPa | 0 mm | - | 0 W/m² | - |
| 1777097105 | 8.33° C | 92% | 1013 hPa | 0 mm | - | 0 W/m² | - |
| 1777096801 | 8.33° C | 92% | 1013 hPa | 0 mm | - | 0 W/m² | - |
| 1777096500 | 8.33° C | 92% | 1012.9 hPa | 0 mm | - | 0 W/m² | - |
| 1777096197 | 8.33° C | 92% | 1012.7 hPa | 0 mm | - | 0 W/m² | - |
| 1777095897 | 8.33° C | 92% | 1012.8 hPa | 0 mm | - | 0 W/m² | - |
| 1777095591 | 8.89° C | 91% | 1012.8 hPa | 0 mm | - | 0 W/m² | - |
| 1777095290 | 8.89° C | 91% | 1012.8 hPa | 0 mm | - | 0 W/m² | - |
| 1777094985 | 9.44° C | 91% | 1012.8 hPa | 0 mm | - | 0 W/m² | - |
| 1777094680 | 10° C | 91% | 1012.7 hPa | 0 mm | - | 0 W/m² | - |
| 1777094379 | 10° C | 91% | 1012.5 hPa | 0 mm | - | 0 W/m² | - |
| 1777094073 | 11.11° C | 91% | 1012.4 hPa | 0 mm | - | 0 W/m² | - |
| 1777093770 | 12.22° C | 91% | 1012.5 hPa | 0 mm | - | 0 W/m² | - |
| 1777093466 | 12.22° C | 92% | 1012 hPa | 0 mm | - | 0 W/m² | - |
| 1777093162 | 12.22° C | 92% | 1011.7 hPa | 0 mm | - | 0 W/m² | - |
| 1777092856 | 12.22° C | 92% | 1011.7 hPa | 0 mm | - | 0 W/m² | - |
| 1777092551 | 12.22° C | 92% | 1011.7 hPa | 0 mm | - | 0 W/m² | - |
| 1777092247 | 12.78° C | 93% | 1011.7 hPa | 0 mm | - | 0 W/m² | - |
* Rain latest hour (hover to see other rain measurements)
** Current wind speed in m/s (hover to see current wind gust speed)